Time,TemperatureF,DewpointF,PressureIn,WindDirection,WindDirectionDegrees,WindSpeedMPH,WindSpeedGustMPH,Humidity,HourlyPrecipIn,Conditions,Clouds,dailyrainin,SoftwareType,DateUTC
2014-02-17 00:02:00,41.2,40.6,29.84,SSW,202,0.0,4.0,98,0.00,,,0.00,meteohub,2014-02-16 23:02:00,
2014-02-17 00:07:00,41.4,40.8,29.81,SW,225,0.0,4.0,98,0.00,,,0.00,meteohub,2014-02-16 23:07:00,
2014-02-17 00:12:00,41.5,41.0,29.81,WSW,248,0.0,3.0,98,0.00,,,0.00,meteohub,2014-02-16 23:12:00,
2014-02-17 00:17:00,41.7,41.2,29.81,SSW,202,0.0,3.0,98,0.00,,,0.00,meteohub,2014-02-16 23:17:00,
2014-02-17 00:22:00,41.9,41.4,29.84,SSE,158,0.0,4.0,98,0.00,,,0.00,meteohub,2014-02-16 23:22:00,
2014-02-17 00:27:00,41.7,41.2,29.84,SSW,202,1.0,4.0,98,0.00,,,0.00,meteohub,2014-02-16 23:27:00,
2014-02-17 00:32:00,41.7,41.2,29.84,SW,225,0.0,3.0,98,0.00,,,0.00,meteohub,2014-02-16 23:32:00,
2014-02-17 00:37:00,41.7,41.2,29.84,SW,225,0.0,3.0,98,0.00,,,0.00,meteohub,2014-02-16 23:37:00,
2014-02-17 00:42:00,41.7,41.2,29.84,SW,225,0.0,3.0,98,0.00,,,0.00,meteohub,2014-02-16 23:42:00,
2014-02-17 00:47:00,41.7,41.2,29.84,South,180,0.0,2.0,98,0.00,,,0.00,meteohub,2014-02-16 23:47:00,
2014-02-17 00:52:00,41.7,41.2,29.84,WSW,248,1.0,2.0,98,0.00,,,0.00,meteohub,2014-02-16 23:52:00,
2014-02-17 00:57:00,41.7,41.2,29.84,SSE,158,0.0,2.0,98,0.00,,,0.00,meteohub,2014-02-16 23:57:00,
2014-02-17 01:02:00,41.5,41.0,29.84,SSE,158,0.0,2.0,98,0.00,,,0.00,meteohub,2014-02-17 00:02:00,
2014-02-17 01:07:00,41.2,40.6,29.84,SSE,158,0.0,2.0,98,0.00,,,0.00,meteohub,2014-02-17 00:07:00,
2014-02-17 01:12:00,40.8,40.3,29.84,South,180,0.0,2.0,98,0.00,,,0.00,meteohub,2014-02-17 00:12:00,
2014-02-17 01:17:00,40.5,39.9,29.84,SSE,158,0.0,1.0,98,0.00,,,0.00,meteohub,2014-02-17 00:17:00,
2014-02-17 01:22:00,40.3,39.7,29.81,ESE,112,0.0,1.0,98,0.00,,,0.00,meteohub,2014-02-17 00:22:00,
2014-02-17 01:27:00,39.9,39.4,29.81,SE,135,0.0,1.0,98,0.00,,,0.00,meteohub,2014-02-17 00:27:00,
2014-02-17 01:32:00,39.7,39.2,29.81,SE,135,0.0,0.0,98,0.00,,,0.00,meteohub,2014-02-17 00:32:00,
2014-02-17 01:37:00,39.4,38.8,29.84,SE,135,0.0,0.0,98,0.00,,,0.00,meteohub,2014-02-17 00:37:00,
2014-02-17 01:42:00,39.4,38.8,29.84,SE,135,0.0,0.0,98,0.00,,,0.00,meteohub,2014-02-17 00:42:00,
2014-02-17 01:48:00,39.2,38.7,29.84,SSE,158,0.0,0.0,98,0.00,,,0.00,meteohub,2014-02-17 00:48:00,
2014-02-17 01:53:00,39.2,38.7,29.84,SSE,158,0.0,1.0,98,0.00,,,0.00,meteohub,2014-02-17 00:53:00,
2014-02-17 01:58:00,39.2,38.7,29.84,SSE,158,0.0,1.0,98,0.00,,,0.00,meteohub,2014-02-17 00:58:00,
2014-02-17 02:03:00,39.2,38.7,29.84,SSE,158,0.0,1.0,98,0.00,,,0.00,meteohub,2014-02-17 01:03:00,
2014-02-17 02:08:00,39.2,38.7,29.87,SSE,158,0.0,2.0,98,0.00,,,0.00,meteohub,2014-02-17 01:08:00,
2014-02-17 02:13:00,39.2,38.7,29.87,SSE,158,0.0,2.0,98,0.00,,,0.00,meteohub,2014-02-17 01:13:00,
2014-02-17 02:19:00,39.0,38.5,29.87,SSW,202,0.0,2.0,98,0.00,,,0.00,meteohub,2014-02-17 01:19:00,
2014-02-17 02:24:00,39.2,38.7,29.84,SSW,202,0.0,2.0,98,0.00,,,0.00,meteohub,2014-02-17 01:24:00,
2014-02-17 02:29:00,39.2,38.7,29.84,SSW,202,0.0,1.0,98,0.00,,,0.00,meteohub,2014-02-17 01:29:00,
2014-02-17 02:34:00,39.2,38.7,29.84,SE,135,0.0,1.0,98,0.00,,,0.00,meteohub,2014-02-17 01:34:00,
2014-02-17 02:39:00,39.2,38.7,29.84,SSE,158,0.0,0.0,98,0.00,,,0.00,meteohub,2014-02-17 01:39:00,
2014-02-17 02:44:00,39.0,38.5,29.84,SSE,158,0.0,0.0,98,0.00,,,0.00,meteohub,2014-02-17 01:44:00,
2014-02-17 02:49:00,39.0,38.5,29.84,SE,135,0.0,0.0,98,0.00,,,0.00,meteohub,2014-02-17 01:49:00,
2014-02-17 02:55:00,39.0,38.5,29.84,SSE,158,0.0,0.0,98,0.00,,,0.00,meteohub,2014-02-17 01:55:00,
2014-02-17 03:00:00,39.0,38.5,29.84,SSE,158,0.0,0.0,98,0.00,,,0.00,meteohub,2014-02-17 02:00:00,
2014-02-17 03:05:00,39.0,38.5,29.84,SSE,158,0.0,0.0,98,0.00,,,0.00,meteohub,2014-02-17 02:05:00,
2014-02-17 03:10:00,39.2,38.7,29.84,SSE,158,0.0,0.0,98,0.00,,,0.00,meteohub,2014-02-17 02:10:00,
2014-02-17 03:13:00,39.4,38.8,29.84,SSE,158,0.0,0.0,98,0.00,,,0.00,meteohub,2014-02-17 02:13:00,
2014-02-17 03:18:00,39.7,39.2,29.84,SSE,158,0.0,0.0,98,0.00,,,0.00,meteohub,2014-02-17 02:18:00,
2014-02-17 03:23:00,39.9,39.4,29.84,SSE,158,0.0,0.0,98,0.00,,,0.00,meteohub,2014-02-17 02:23:00,
2014-02-17 03:29:00,39.9,39.4,29.84,SSE,158,0.0,0.0,98,0.00,,,0.00,meteohub,2014-02-17 02:29:00,
2014-02-17 03:34:00,39.7,39.2,29.84,SSE,158,0.0,3.0,98,0.00,,,0.00,meteohub,2014-02-17 02:34:00,
2014-02-17 03:39:00,39.9,39.4,29.84,SSE,158,0.0,3.0,98,0.00,,,0.00,meteohub,2014-02-17 02:39:00,
2014-02-17 03:44:00,39.9,39.4,29.84,SSE,158,0.0,3.0,98,0.00,,,0.00,meteohub,2014-02-17 02:44:00,
2014-02-17 03:49:00,39.7,39.2,29.81,SSE,158,0.0,2.0,98,0.00,,,0.00,meteohub,2014-02-17 02:49:00,
2014-02-17 03:54:00,39.7,39.2,29.81,SSE,158,0.0,2.0,98,0.00,,,0.00,meteohub,2014-02-17 02:54:00,
2014-02-17 04:00:00,39.7,39.2,29.81,SSE,158,0.0,0.0,98,0.00,,,0.00,meteohub,2014-02-17 03:00:00,
2014-02-17 04:05:00,39.9,39.4,29.84,SSE,158,0.0,1.0,98,0.00,,,0.00,meteohub,2014-02-17 03:05:00,
2014-02-17 04:10:00,39.9,39.4,29.84,SSE,158,0.0,2.0,98,0.00,,,0.00,meteohub,2014-02-17 03:10:00,
2014-02-17 04:15:00,39.7,39.2,29.84,SSE,158,0.0,2.0,98,0.00,,,0.00,meteohub,2014-02-17 03:15:00,
2014-02-17 04:20:00,39.7,39.2,29.84,SSE,158,0.0,2.0,98,0.00,,,0.00,meteohub,2014-02-17 03:20:00,
2014-02-17 04:25:00,39.7,39.2,29.84,SSE,158,0.0,2.0,98,0.00,,,0.00,meteohub,2014-02-17 03:25:00,
2014-02-17 04:31:00,39.9,39.4,29.84,SSE,158,0.0,1.0,98,0.00,,,0.00,meteohub,2014-02-17 03:31:00,
2014-02-17 04:36:00,40.3,39.7,29.81,SSE,158,0.0,3.0,98,0.00,,,0.00,meteohub,2014-02-17 03:36:00,
2014-02-17 04:41:00,40.5,39.9,29.81,SSE,158,2.0,3.0,98,0.00,,,0.00,meteohub,2014-02-17 03:41:00,
2014-02-17 04:46:00,40.6,40.1,29.81,South,180,0.0,3.0,98,0.00,,,0.00,meteohub,2014-02-17 03:46:00,
2014-02-17 04:51:00,40.8,40.3,29.81,South,180,0.0,3.0,98,0.00,,,0.00,meteohub,2014-02-17 03:51:00,
2014-02-17 04:56:00,41.2,40.6,29.81,SSE,158,0.0,3.0,98,0.00,,,0.00,meteohub,2014-02-17 03:56:00,
2014-02-17 05:02:00,41.5,41.0,29.81,SSE,158,2.0,3.0,98,0.00,,,0.00,meteohub,2014-02-17 04:02:00,
2014-02-17 05:07:00,41.7,41.2,29.81,South,180,0.0,4.0,98,0.00,,,0.00,meteohub,2014-02-17 04:07:00,
2014-02-17 05:12:00,41.9,41.4,29.81,South,180,0.0,4.0,98,0.00,,,0.00,meteohub,2014-02-17 04:12:00,
2014-02-17 05:17:00,42.1,41.5,29.81,South,180,0.0,4.0,98,0.00,,,0.00,meteohub,2014-02-17 04:17:00,
2014-02-17 05:22:00,42.1,41.5,29.81,SSW,202,1.0,4.0,98,0.00,,,0.00,meteohub,2014-02-17 04:22:00,
2014-02-17 05:27:00,42.3,41.7,29.81,South,180,0.0,4.0,98,0.00,,,0.00,meteohub,2014-02-17 04:27:00,
2014-02-17 05:32:00,42.3,41.7,29.81,SSW,202,1.0,4.0,98,0.00,,,0.00,meteohub,2014-02-17 04:32:00,
2014-02-17 05:37:00,42.3,41.7,29.84,SSW,202,2.0,3.0,98,0.00,,,0.00,meteohub,2014-02-17 04:37:00,
2014-02-17 05:42:00,42.4,41.9,29.84,SW,225,0.0,3.0,98,0.00,,,0.00,meteohub,2014-02-17 04:42:00,
2014-02-17 05:47:00,42.4,41.9,29.84,SSW,202,3.0,4.0,98,0.00,,,0.00,meteohub,2014-02-17 04:47:00,
2014-02-17 05:52:00,42.4,41.9,29.84,SSW,202,0.0,4.0,98,0.00,,,0.00,meteohub,2014-02-17 04:52:00,
2014-02-17 05:57:00,42.4,41.9,29.84,SSW,202,1.0,4.0,98,0.00,,,0.00,meteohub,2014-02-17 04:57:00,
2014-02-17 06:01:00,42.4,41.9,29.84,SSW,202,3.0,4.0,98,0.00,,,0.00,meteohub,2014-02-17 05:01:00,
2014-02-17 06:02:00,42.4,41.9,29.84,SW,225,0.0,4.0,98,0.00,,,0.00,meteohub,2014-02-17 05:02:00,
2014-02-17 06:03:00,42.6,42.1,29.84,SSW,202,0.0,4.0,98,0.00,,,0.00,meteohub,2014-02-17 05:03:00,
2014-02-17 06:05:00,42.6,42.1,29.84,SSW,202,0.0,4.0,98,0.00,,,0.00,meteohub,2014-02-17 05:05:00,
2014-02-17 06:10:00,42.8,42.3,29.84,WSW,248,0.0,4.0,98,0.00,,,0.00,meteohub,2014-02-17 05:10:00,
2014-02-17 06:16:00,42.8,42.3,29.84,SW,225,0.0,4.0,98,0.00,,,0.00,meteohub,2014-02-17 05:16:00,
2014-02-17 06:21:00,42.8,42.3,29.84,WSW,248,3.0,4.0,98,0.00,,,0.00,meteohub,2014-02-17 05:21:00,
2014-02-17 06:26:00,43.2,42.6,29.84,SSW,202,0.0,4.0,98,0.00,,,0.00,meteohub,2014-02-17 05:26:00,
2014-02-17 06:31:00,43.2,42.6,29.84,WNW,292,1.0,4.0,98,0.00,,,0.00,meteohub,2014-02-17 05:31:00,
2014-02-17 06:36:00,43.3,42.8,29.84,South,180,4.0,4.0,98,0.00,,,0.00,meteohub,2014-02-17 05:36:00,
2014-02-17 06:42:00,43.3,42.8,29.84,SSW,202,0.0,4.0,98,0.00,,,0.00,meteohub,2014-02-17 05:42:00,
2014-02-17 06:47:00,43.5,43.0,29.84,SSE,158,3.0,5.0,98,0.00,,,0.00,meteohub,2014-02-17 05:47:00,
2014-02-17 06:52:00,43.5,43.0,29.84,SSW,202,0.0,5.0,98,0.00,,,0.00,meteohub,2014-02-17 05:52:00,
2014-02-17 06:57:00,43.7,43.2,29.84,South,180,2.0,4.0,98,0.00,,,0.00,meteohub,2014-02-17 05:57:00,
2014-02-17 07:02:00,43.7,43.2,29.84,SSW,202,0.0,4.0,98,0.00,,,0.00,meteohub,2014-02-17 06:02:00,
2014-02-17 07:07:00,43.7,43.2,29.84,SSW,202,0.0,3.0,98,0.00,,,0.00,meteohub,2014-02-17 06:07:00,
2014-02-17 07:12:00,43.7,43.2,29.84,SSW,202,0.0,3.0,98,0.00,,,0.00,meteohub,2014-02-17 06:12:00,
2014-02-17 07:17:00,43.7,43.2,29.84,SSW,202,0.0,3.0,98,0.00,,,0.00,meteohub,2014-02-17 06:17:00,
2014-02-17 07:22:00,43.5,43.0,29.84,SW,225,0.0,3.0,98,0.00,,,0.00,meteohub,2014-02-17 06:22:00,
2014-02-17 07:27:00,43.5,43.0,29.84,South,180,0.0,3.0,98,0.00,,,0.00,meteohub,2014-02-17 06:27:00,
2014-02-17 07:32:00,43.7,43.2,29.84,West,270,0.0,3.0,98,0.00,,,0.00,meteohub,2014-02-17 06:32:00,
2014-02-17 07:37:00,43.7,43.2,29.84,South,180,0.0,3.0,98,0.00,,,0.00,meteohub,2014-02-17 06:37:00,
2014-02-17 07:42:00,43.7,43.2,29.84,South,180,1.0,3.0,98,0.00,,,0.00,meteohub,2014-02-17 06:42:00,
2014-02-17 07:47:00,43.7,43.2,29.84,SSE,158,1.0,3.0,98,0.00,,,0.00,meteohub,2014-02-17 06:47:00,
2014-02-17 07:52:00,43.7,43.2,29.81,SSE,158,1.0,3.0,98,0.00,,,0.00,meteohub,2014-02-17 06:52:00,
2014-02-17 07:57:00,43.5,43.0,29.81,SSW,202,0.0,4.0,98,0.00,,,0.00,meteohub,2014-02-17 06:57:00,
2014-02-17 08:02:00,43.7,43.2,29.81,SW,225,0.0,3.0,98,0.00,,,0.00,meteohub,2014-02-17 07:02:00,
2014-02-17 08:07:00,43.7,43.2,29.84,South,180,2.0,3.0,98,0.00,,,0.00,meteohub,2014-02-17 07:07:00,
2014-02-17 08:12:00,43.9,43.3,29.84,South,180,3.0,5.0,98,0.00,,,0.00,meteohub,2014-02-17 07:12:00,
2014-02-17 08:17:00,44.1,43.5,29.84,SSW,202,0.0,5.0,98,0.00,,,0.00,meteohub,2014-02-17 07:17:00,
2014-02-17 08:22:00,44.2,43.7,29.84,SSE,158,0.0,5.0,98,0.00,,,0.00,meteohub,2014-02-17 07:22:00,
2014-02-17 08:27:00,44.6,44.1,29.84,SW,225,0.0,4.0,98,0.00,,,0.00,meteohub,2014-02-17 07:27:00,
2014-02-17 08:32:00,44.8,44.2,29.84,South,180,0.0,4.0,98,0.00,,,0.00,meteohub,2014-02-17 07:32:00,
2014-02-17 08:37:00,45.1,44.6,29.87,South,180,2.0,4.0,98,0.00,,,0.00,meteohub,2014-02-17 07:37:00,
2014-02-17 08:42:00,45.3,44.8,29.87,SW,225,0.0,4.0,98,0.00,,,0.00,meteohub,2014-02-17 07:42:00,
2014-02-17 08:47:00,45.3,44.8,29.87,WSW,248,0.0,4.0,98,0.00,,,0.00,meteohub,2014-02-17 07:47:00,
2014-02-17 08:52:00,45.5,45.0,29.87,SW,225,1.0,4.0,98,0.00,,,0.00,meteohub,2014-02-17 07:52:00,
2014-02-17 08:57:00,45.7,45.1,29.87,SSW,202,1.0,4.0,98,0.00,,,0.00,meteohub,2014-02-17 07:57:00,
2014-02-17 09:02:00,45.9,45.3,29.87,SSW,202,2.0,4.0,98,0.00,,,0.00,meteohub,2014-02-17 08:02:00,
2014-02-17 09:07:00,46.0,45.5,29.87,WSW,248,1.0,4.0,98,0.00,,,0.00,meteohub,2014-02-17 08:07:00,
2014-02-17 09:12:00,46.2,45.7,29.87,SSW,202,1.0,4.0,98,0.00,,,0.00,meteohub,2014-02-17 08:12:00,
2014-02-17 09:17:00,46.4,45.9,29.87,WSW,248,0.0,5.0,98,0.00,,,0.00,meteohub,2014-02-17 08:17:00,
2014-02-17 09:22:00,46.6,46.0,29.87,SW,225,0.0,6.0,98,0.00,,,0.00,meteohub,2014-02-17 08:22:00,
2014-02-17 09:27:00,46.6,46.0,29.87,SSW,202,3.0,6.0,98,0.00,,,0.00,meteohub,2014-02-17 08:27:00,
2014-02-17 09:32:00,46.8,46.2,29.87,SW,225,2.0,5.0,98,0.00,,,0.00,meteohub,2014-02-17 08:32:00,
2014-02-17 09:37:00,46.9,46.4,29.87,WSW,248,3.0,5.0,98,0.00,,,0.00,meteohub,2014-02-17 08:37:00,
2014-02-17 09:42:00,47.1,46.6,29.87,SSW,202,2.0,4.0,98,0.00,,,0.00,meteohub,2014-02-17 08:42:00,
2014-02-17 09:47:00,47.3,46.8,29.87,SSW,202,3.0,6.0,98,0.00,,,0.00,meteohub,2014-02-17 08:47:00,
2014-02-17 09:52:00,47.5,46.9,29.87,WSW,248,2.0,6.0,98,0.00,,,0.00,meteohub,2014-02-17 08:52:00,
2014-02-17 09:57:00,47.5,46.9,29.87,WNW,292,1.0,5.0,98,0.00,,,0.00,meteohub,2014-02-17 08:57:00,
2014-02-17 10:02:00,47.7,47.1,29.87,West,270,8.0,8.0,98,0.00,,,0.00,meteohub,2014-02-17 09:02:00,
2014-02-17 10:07:00,47.7,47.1,29.90,WNW,292,8.0,8.0,98,0.00,,,0.00,meteohub,2014-02-17 09:07:00,
2014-02-17 10:12:00,47.8,47.3,29.90,SW,225,3.0,8.0,98,0.00,,,0.00,meteohub,2014-02-17 09:12:00,
2014-02-17 10:17:00,47.8,47.3,29.90,SSW,202,3.0,8.0,98,0.00,,,0.00,meteohub,2014-02-17 09:17:00,
2014-02-17 10:22:00,48.4,47.8,29.90,SW,225,2.0,8.0,98,0.00,,,0.00,meteohub,2014-02-17 09:22:00,
2014-02-17 10:27:00,48.6,48.0,29.90,WSW,248,6.0,8.0,98,0.00,,,0.00,meteohub,2014-02-17 09:27:00,
2014-02-17 10:32:00,48.6,48.0,29.90,West,270,3.0,9.0,98,0.00,,,0.00,meteohub,2014-02-17 09:32:00,
2014-02-17 10:37:00,48.6,48.0,29.90,WSW,248,4.0,9.0,98,0.00,,,0.00,meteohub,2014-02-17 09:37:00,
2014-02-17 10:42:00,48.6,48.0,29.90,West,270,4.0,9.0,98,0.00,,,0.00,meteohub,2014-02-17 09:42:00,
2014-02-17 10:47:00,48.4,47.8,29.90,SE,135,6.0,8.0,98,0.00,,,0.00,meteohub,2014-02-17 09:47:00,
2014-02-17 10:52:00,48.2,47.7,29.90,West,270,5.0,8.0,98,0.00,,,0.00,meteohub,2014-02-17 09:52:00,
2014-02-17 10:57:00,48.4,47.8,29.90,West,270,3.0,9.0,98,0.00,,,0.00,meteohub,2014-02-17 09:57:00,
2014-02-17 11:02:00,48.6,48.0,29.90,WNW,292,4.0,9.0,98,0.00,,,0.00,meteohub,2014-02-17 10:02:00,
2014-02-17 11:07:00,48.6,48.0,29.90,WSW,248,5.0,8.0,98,0.00,,,0.00,meteohub,2014-02-17 10:07:00,
2014-02-17 11:12:00,48.6,48.0,29.90,SSW,202,3.0,7.0,98,0.00,,,0.00,meteohub,2014-02-17 10:12:00,
2014-02-17 11:17:00,48.7,48.2,29.90,SW,225,4.0,8.0,98,0.00,,,0.00,meteohub,2014-02-17 10:17:00,
2014-02-17 11:22:00,48.7,48.2,29.90,WNW,292,5.0,8.0,98,0.00,,,0.00,meteohub,2014-02-17 10:22:00,
2014-02-17 11:27:00,48.7,48.2,29.90,WSW,248,6.0,9.0,98,0.00,,,0.00,meteohub,2014-02-17 10:27:00,
2014-02-17 11:32:00,48.7,48.2,29.90,WSW,248,3.0,9.0,98,0.00,,,0.00,meteohub,2014-02-17 10:32:00,
2014-02-17 11:37:00,48.9,48.4,29.90,SSW,202,4.0,8.0,98,0.00,,,0.00,meteohub,2014-02-17 10:37:00,
2014-02-17 11:42:00,49.1,48.6,29.90,WSW,248,8.0,8.0,98,0.00,,,0.00,meteohub,2014-02-17 10:42:00,
2014-02-17 11:47:00,49.1,48.6,29.90,WNW,292,3.0,8.0,98,0.00,,,0.00,meteohub,2014-02-17 10:47:00,
2014-02-17 11:52:00,50.0,49.5,29.87,WNW,292,0.0,8.0,98,0.00,,,0.00,meteohub,2014-02-17 10:52:00,
2014-02-17 11:57:00,50.0,49.5,29.87,SW,225,2.0,8.0,98,0.00,,,0.00,meteohub,2014-02-17 10:57:00,
2014-02-17 12:02:00,49.8,49.3,29.87,SW,225,6.0,7.0,98,0.00,,,0.00,meteohub,2014-02-17 11:02:00,
2014-02-17 12:07:00,49.6,49.1,29.87,WNW,292,4.0,8.0,98,0.00,,,0.00,meteohub,2014-02-17 11:07:00,
2014-02-17 12:12:00,49.6,49.1,29.87,SW,225,7.0,10.0,98,0.00,,,0.00,meteohub,2014-02-17 11:12:00,
2014-02-17 12:17:00,49.6,49.1,29.87,SSW,202,6.0,10.0,98,0.00,,,0.00,meteohub,2014-02-17 11:17:00,
2014-02-17 12:22:00,50.2,49.6,29.90,WSW,248,6.0,10.0,98,0.00,,,0.00,meteohub,2014-02-17 11:22:00,
2014-02-17 12:28:00,50.5,50.0,29.90,WSW,248,3.0,10.0,98,0.00,,,0.00,meteohub,2014-02-17 11:28:00,
2014-02-17 12:33:00,50.2,49.6,29.90,WSW,248,4.0,10.0,98,0.00,,,0.00,meteohub,2014-02-17 11:33:00,
2014-02-17 12:38:00,50.5,50.0,29.90,NW,315,4.0,10.0,98,0.00,,,0.00,meteohub,2014-02-17 11:38:00,
2014-02-17 12:43:00,51.6,51.1,29.90,WNW,292,5.0,10.0,98,0.00,,,0.00,meteohub,2014-02-17 11:43:00,
2014-02-17 12:48:00,52.5,52.0,29.90,WNW,292,6.0,11.0,98,0.00,,,0.00,meteohub,2014-02-17 11:48:00,
2014-02-17 12:53:00,51.8,51.3,29.87,WSW,248,4.0,11.0,98,0.00,,,0.00,meteohub,2014-02-17 11:53:00,
2014-02-17 12:58:00,52.9,52.3,29.87,SW,225,3.0,11.0,98,0.00,,,0.00,meteohub,2014-02-17 11:58:00,
2014-02-17 13:04:00,53.1,52.5,29.90,WNW,292,6.0,10.0,98,0.00,,,0.00,meteohub,2014-02-17 12:04:00,
2014-02-17 13:09:00,53.8,53.2,29.90,SW,225,3.0,10.0,98,0.00,,,0.00,meteohub,2014-02-17 12:09:00,
2014-02-17 13:14:00,53.4,52.9,29.90,West,270,6.0,9.0,98,0.00,,,0.00,meteohub,2014-02-17 12:14:00,
2014-02-17 13:19:00,53.6,53.1,29.90,SW,225,6.0,8.0,98,0.00,,,0.00,meteohub,2014-02-17 12:19:00,
2014-02-17 13:24:00,54.1,53.6,29.90,SSE,158,6.0,8.0,98,0.00,,,0.00,meteohub,2014-02-17 12:24:00,
2014-02-17 13:29:00,54.5,54.0,29.90,WNW,292,1.0,8.0,98,0.00,,,0.00,meteohub,2014-02-17 12:29:00,
2014-02-17 13:35:00,54.5,54.0,29.90,WNW,292,4.0,8.0,98,0.00,,,0.00,meteohub,2014-02-17 12:35:00,
2014-02-17 13:40:00,55.4,54.9,29.90,SSE,158,6.0,8.0,98,0.00,,,0.00,meteohub,2014-02-17 12:40:00,
2014-02-17 13:45:00,55.4,54.9,29.90,NW,315,2.0,8.0,98,0.00,,,0.00,meteohub,2014-02-17 12:45:00,
2014-02-17 13:50:00,55.6,55.0,29.87,SW,225,6.0,8.0,98,0.00,,,0.00,meteohub,2014-02-17 12:50:00,
2014-02-17 13:55:00,55.4,54.9,29.87,WNW,292,5.0,8.0,98,0.00,,,0.00,meteohub,2014-02-17 12:55:00,
2014-02-17 14:00:00,55.6,55.0,29.87,SW,225,6.0,7.0,98,0.00,,,0.00,meteohub,2014-02-17 13:00:00,
2014-02-17 14:06:00,54.7,54.1,29.90,West,270,4.0,8.0,98,0.00,,,0.00,meteohub,2014-02-17 13:06:00,
2014-02-17 14:11:00,54.7,54.1,29.90,SW,225,3.0,9.0,98,0.00,,,0.00,meteohub,2014-02-17 13:11:00,
2014-02-17 14:16:00,54.5,54.0,29.90,WSW,248,7.0,10.0,98,0.00,,,0.00,meteohub,2014-02-17 13:16:00,
2014-02-17 14:21:00,55.0,54.5,29.90,WSW,248,6.0,10.0,98,0.00,,,0.00,meteohub,2014-02-17 13:21:00,
2014-02-17 14:26:00,55.8,55.2,29.90,SSW,202,3.0,10.0,98,0.00,,,0.00,meteohub,2014-02-17 13:26:00,
2014-02-17 14:31:00,55.2,54.7,29.90,WSW,248,5.0,9.0,98,0.00,,,0.00,meteohub,2014-02-17 13:31:00,
2014-02-17 14:37:00,55.0,54.5,29.90,SSW,202,10.0,10.0,98,0.00,,,0.00,meteohub,2014-02-17 13:37:00,
2014-02-17 14:42:00,54.1,53.6,29.90,WSW,248,4.0,11.0,98,0.00,,,0.00,meteohub,2014-02-17 13:42:00,
2014-02-17 14:47:00,53.8,53.2,29.90,WSW,248,2.0,11.0,98,0.00,,,0.00,meteohub,2014-02-17 13:47:00,
2014-02-17 14:52:00,53.6,53.1,29.90,SSW,202,4.0,11.0,98,0.00,,,0.00,meteohub,2014-02-17 13:52:00,
2014-02-17 14:57:00,53.4,52.9,29.90,SSW,202,6.0,10.0,98,0.00,,,0.00,meteohub,2014-02-17 13:57:00,
2014-02-17 15:02:00,54.1,53.6,29.90,SW,225,3.0,10.0,98,0.00,,,0.00,meteohub,2014-02-17 14:02:00,
2014-02-17 15:07:00,54.0,53.4,29.90,South,180,4.0,10.0,98,0.00,,,0.00,meteohub,2014-02-17 14:07:00,
2014-02-17 15:12:00,53.8,53.2,29.90,SSW,202,5.0,9.0,98,0.00,,,0.00,meteohub,2014-02-17 14:12:00,
2014-02-17 15:17:00,53.8,53.2,29.90,West,270,1.0,11.0,98,0.00,,,0.00,meteohub,2014-02-17 14:17:00,
2014-02-17 15:22:00,53.4,52.9,29.90,West,270,6.0,11.0,98,0.00,,,0.00,meteohub,2014-02-17 14:22:00,
2014-02-17 16:08:00,52.7,52.2,29.90,SSW,202,6.0,-999.0,98,0.00,,,0.00,meteohub,2014-02-17 15:08:00,
2014-02-17 16:13:00,52.3,51.8,29.90,West,270,4.0,9.0,98,0.00,,,0.00,meteohub,2014-02-17 15:13:00,
2014-02-17 16:18:00,51.8,51.3,29.90,South,180,5.0,9.0,98,0.00,,,0.00,meteohub,2014-02-17 15:18:00,
2014-02-17 16:23:00,51.6,51.1,29.93,NE,45,1.0,9.0,98,0.00,,,0.00,meteohub,2014-02-17 15:23:00,
2014-02-17 16:28:00,51.4,50.9,29.93,WSW,248,1.0,9.0,98,0.00,,,0.00,meteohub,2014-02-17 15:28:00,
2014-02-17 16:33:00,51.4,50.9,29.93,SW,225,2.0,9.0,98,0.00,,,0.00,meteohub,2014-02-17 15:33:00,
2014-02-17 16:39:00,51.4,50.9,29.93,SSW,202,3.0,8.0,98,0.00,,,0.00,meteohub,2014-02-17 15:39:00,
2014-02-17 16:44:00,51.4,50.9,29.93,WSW,248,5.0,8.0,98,0.00,,,0.00,meteohub,2014-02-17 15:44:00,
2014-02-17 16:49:00,51.4,50.9,29.93,SSW,202,4.0,7.0,98,0.00,,,0.00,meteohub,2014-02-17 15:49:00,
2014-02-17 16:54:00,51.4,50.9,29.93,SSW,202,6.0,7.0,98,0.00,,,0.00,meteohub,2014-02-17 15:54:00,
2014-02-17 16:59:00,51.6,51.1,29.93,SW,225,3.0,7.0,98,0.00,,,0.00,meteohub,2014-02-17 15:59:00,
2014-02-17 17:04:00,51.6,51.1,29.93,South,180,3.0,7.0,98,0.00,,,0.00,meteohub,2014-02-17 16:04:00,
2014-02-17 17:10:00,51.4,50.9,29.93,SW,225,3.0,7.0,98,0.00,,,0.00,meteohub,2014-02-17 16:10:00,
2014-02-17 17:15:00,51.4,50.9,29.93,SSW,202,6.0,7.0,98,0.00,,,0.00,meteohub,2014-02-17 16:15:00,
2014-02-17 17:20:00,51.3,50.7,29.93,South,180,3.0,7.0,98,0.00,,,0.00,meteohub,2014-02-17 16:20:00,
2014-02-17 17:25:00,51.1,50.5,29.93,WSW,248,2.0,7.0,98,0.00,,,0.00,meteohub,2014-02-17 16:25:00,
2014-02-17 17:30:00,50.9,50.4,29.93,SSW,202,5.0,6.0,98,0.00,,,0.00,meteohub,2014-02-17 16:30:00,
2014-02-17 17:35:00,50.7,50.2,29.96,WSW,248,4.0,6.0,98,0.00,,,0.00,meteohub,2014-02-17 16:35:00,
2014-02-17 17:41:00,50.5,50.0,29.96,WSW,248,1.0,7.0,98,0.00,,,0.00,meteohub,2014-02-17 16:41:00,
2014-02-17 17:46:00,50.4,49.8,29.96,SW,225,3.0,7.0,98,0.00,,,0.00,meteohub,2014-02-17 16:46:00,
2014-02-17 17:51:00,50.4,49.8,29.93,South,180,5.0,9.0,98,0.00,,,0.00,meteohub,2014-02-17 16:51:00,
2014-02-17 17:56:00,50.2,49.6,29.93,SSW,202,2.0,9.0,98,0.00,,,0.00,meteohub,2014-02-17 16:56:00,
2014-02-17 18:01:00,50.2,49.6,29.93,South,180,1.0,8.0,98,0.00,,,0.00,meteohub,2014-02-17 17:01:00,
2014-02-17 18:06:00,50.0,49.5,29.93,SSW,202,4.0,7.0,98,0.00,,,0.00,meteohub,2014-02-17 17:06:00,
2014-02-17 18:12:00,50.0,49.5,29.93,SW,225,4.0,6.0,98,0.00,,,0.00,meteohub,2014-02-17 17:12:00,
2014-02-17 18:17:00,50.0,49.5,29.93,WSW,248,3.0,6.0,98,0.00,,,0.00,meteohub,2014-02-17 17:17:00,
2014-02-17 18:22:00,49.8,49.3,29.93,SSW,202,3.0,9.0,98,0.00,,,0.00,meteohub,2014-02-17 17:22:00,
2014-02-17 18:27:00,49.8,49.3,29.93,SW,225,7.0,9.0,98,0.00,,,0.00,meteohub,2014-02-17 17:27:00,
2014-02-17 18:32:00,49.6,49.1,29.93,SSW,202,4.0,9.0,98,0.00,,,0.00,meteohub,2014-02-17 17:32:00,
2014-02-17 18:37:00,49.6,49.1,29.96,South,180,5.0,9.0,98,0.00,,,0.00,meteohub,2014-02-17 17:37:00,
2014-02-17 18:42:00,49.5,48.9,29.96,SW,225,6.0,9.0,98,0.00,,,0.00,meteohub,2014-02-17 17:42:00,
2014-02-17 18:47:00,49.3,48.7,29.96,SW,225,3.0,6.0,98,0.00,,,0.00,meteohub,2014-02-17 17:47:00,
2014-02-17 18:52:00,49.1,48.6,29.96,SSW,202,8.0,8.0,98,0.00,,,0.00,meteohub,2014-02-17 17:52:00,
2014-02-17 18:57:00,48.9,48.4,29.96,South,180,5.0,8.0,98,0.00,,,0.00,meteohub,2014-02-17 17:57:00,
2014-02-17 19:02:00,48.7,48.2,29.96,SSW,202,3.0,8.0,98,0.00,,,0.00,meteohub,2014-02-17 18:02:00,
2014-02-17 19:07:00,48.7,48.2,29.96,SSW,202,4.0,8.0,98,0.00,,,0.00,meteohub,2014-02-17 18:07:00,
2014-02-17 19:12:00,48.6,48.0,29.96,SSW,202,2.0,8.0,98,0.00,,,0.00,meteohub,2014-02-17 18:12:00,
2014-02-17 19:17:00,48.6,48.0,29.96,SW,225,4.0,8.0,98,0.00,,,0.00,meteohub,2014-02-17 18:17:00,
2014-02-17 19:22:00,48.6,48.0,29.96,SW,225,4.0,9.0,98,0.00,,,0.00,meteohub,2014-02-17 18:22:00,
2014-02-17 19:27:00,48.4,47.8,29.96,SSW,202,7.0,9.0,98,0.00,,,0.00,meteohub,2014-02-17 18:27:00,
2014-02-17 19:32:00,48.4,47.8,29.96,SW,225,3.0,9.0,98,0.00,,,0.00,meteohub,2014-02-17 18:32:00,
2014-02-17 19:37:00,48.2,47.7,29.96,SW,225,3.0,8.0,98,0.00,,,0.00,meteohub,2014-02-17 18:37:00,
2014-02-17 19:42:00,48.2,47.7,29.96,SW,225,3.0,8.0,98,0.00,,,0.00,meteohub,2014-02-17 18:42:00,
2014-02-17 19:47:00,48.2,47.7,29.96,West,270,2.0,8.0,98,0.00,,,0.00,meteohub,2014-02-17 18:47:00,
2014-02-17 19:52:00,48.2,47.7,29.96,WSW,248,3.0,8.0,98,0.00,,,0.00,meteohub,2014-02-17 18:52:00,
2014-02-17 19:57:00,48.2,47.7,29.96,South,180,1.0,7.0,98,0.00,,,0.00,meteohub,2014-02-17 18:57:00,
2014-02-17 20:02:00,48.2,47.7,29.96,SSW,202,5.0,7.0,98,0.00,,,0.00,meteohub,2014-02-17 19:02:00,
2014-02-17 20:07:00,48.2,47.7,29.96,SW,225,6.0,8.0,98,0.00,,,0.00,meteohub,2014-02-17 19:07:00,
2014-02-17 20:12:00,48.2,47.7,29.96,SSW,202,4.0,8.0,98,0.00,,,0.00,meteohub,2014-02-17 19:12:00,
2014-02-17 20:17:00,48.0,47.5,29.96,WNW,292,3.0,11.0,98,0.00,,,0.00,meteohub,2014-02-17 19:17:00,
2014-02-17 20:22:00,48.0,47.5,29.96,SSW,202,8.0,11.0,98,0.00,,,0.00,meteohub,2014-02-17 19:22:00,
2014-02-17 20:27:00,48.0,47.5,29.96,WNW,292,5.0,11.0,98,0.00,,,0.00,meteohub,2014-02-17 19:27:00,
2014-02-17 20:32:00,48.0,47.5,29.96,SW,225,4.0,8.0,98,0.00,,,0.00,meteohub,2014-02-17 19:32:00,
2014-02-17 20:37:00,48.0,47.5,29.96,SSW,202,1.0,8.0,98,0.00,,,0.00,meteohub,2014-02-17 19:37:00,
2014-02-17 20:42:00,48.0,47.5,29.96,WNW,292,5.0,9.0,98,0.00,,,0.00,meteohub,2014-02-17 19:42:00,
2014-02-17 21:30:00,46.9,46.4,29.96,SSW,202,3.0,-999.0,98,0.00,,,0.00,meteohub,2014-02-17 20:30:00,
2014-02-17 21:35:00,46.8,46.2,29.96,SSW,202,1.0,-999.0,98,0.00,,,0.00,meteohub,2014-02-17 20:35:00,
2014-02-17 21:41:00,46.6,46.0,29.96,South,180,5.0,7.0,98,0.00,,,0.00,meteohub,2014-02-17 20:41:00,
2014-02-17 21:46:00,46.4,45.9,29.96,SW,225,2.0,6.0,98,0.00,,,0.00,meteohub,2014-02-17 20:46:00,
2014-02-17 21:51:00,46.2,45.7,29.96,SSW,202,4.0,10.0,98,0.00,,,0.00,meteohub,2014-02-17 20:51:00,
2014-02-17 21:56:00,46.2,45.7,29.96,South,180,7.0,10.0,98,0.00,,,0.00,meteohub,2014-02-17 20:56:00,
2014-02-17 22:01:00,46.0,45.5,29.96,SW,225,6.0,10.0,98,0.00,,,0.00,meteohub,2014-02-17 21:01:00,
2014-02-17 22:06:00,46.0,45.5,29.96,SE,135,6.0,9.0,98,0.00,,,0.00,meteohub,2014-02-17 21:06:00,
2014-02-17 22:12:00,46.0,45.5,29.96,SSW,202,6.0,11.0,98,0.00,,,0.00,meteohub,2014-02-17 21:12:00,
2014-02-17 22:17:00,45.9,45.3,29.96,SW,225,3.0,11.0,98,0.00,,,0.00,meteohub,2014-02-17 21:17:00,
2014-02-17 22:22:00,45.9,45.3,29.96,West,270,2.0,8.0,98,0.00,,,0.00,meteohub,2014-02-17 21:22:00,
2014-02-17 22:27:00,45.7,45.1,29.96,SSW,202,4.0,7.0,98,0.00,,,0.00,meteohub,2014-02-17 21:27:00,
2014-02-17 22:32:00,45.7,45.1,29.96,SSE,158,0.0,6.0,98,0.00,,,0.00,meteohub,2014-02-17 21:32:00,
2014-02-17 22:37:00,45.3,44.8,29.96,WNW,292,2.0,6.0,98,0.00,,,0.00,meteohub,2014-02-17 21:37:00,
2014-02-17 22:42:00,45.3,44.8,29.96,SSW,202,3.0,6.0,98,0.00,,,0.00,meteohub,2014-02-17 21:42:00,
2014-02-17 22:47:00,45.3,44.8,29.96,SW,225,3.0,6.0,98,0.00,,,0.00,meteohub,2014-02-17 21:47:00,
2014-02-17 22:52:00,45.3,44.8,29.96,SSW,202,3.0,7.0,98,0.00,,,0.00,meteohub,2014-02-17 21:52:00,
2014-02-17 22:57:00,45.3,44.8,29.96,SW,225,3.0,7.0,98,0.00,,,0.00,meteohub,2014-02-17 21:57:00,
2014-02-17 23:02:00,45.5,45.0,29.96,SW,225,0.0,9.0,98,0.00,,,0.00,meteohub,2014-02-17 22:02:00,
2014-02-17 23:07:00,45.7,45.1,29.96,SW,225,2.0,9.0,98,0.00,,,0.00,meteohub,2014-02-17 22:07:00,
2014-02-17 23:12:00,45.7,45.1,29.96,South,180,4.0,9.0,98,0.00,,,0.00,meteohub,2014-02-17 22:12:00,
2014-02-17 23:17:00,45.9,45.3,29.96,SE,135,2.0,7.0,98,0.00,,,0.00,meteohub,2014-02-17 22:17:00,
2014-02-17 23:22:00,45.9,45.3,29.96,SSW,202,4.0,7.0,98,0.00,,,0.00,meteohub,2014-02-17 22:22:00,
2014-02-17 23:27:00,45.9,45.3,29.96,South,180,2.0,7.0,98,0.00,,,0.00,meteohub,2014-02-17 22:27:00,
2014-02-17 23:32:00,45.9,45.3,29.96,SW,225,6.0,6.0,98,0.00,,,0.00,meteohub,2014-02-17 22:32:00,
2014-02-17 23:37:00,45.9,45.3,29.93,South,180,2.0,6.0,98,0.00,,,0.00,meteohub,2014-02-17 22:37:00,
2014-02-17 23:42:00,46.0,45.5,29.93,West,270,0.0,6.0,98,0.00,,,0.00,meteohub,2014-02-17 22:42:00,
2014-02-17 23:47:00,45.9,45.3,29.93,SSW,202,3.0,8.0,98,0.00,,,0.00,meteohub,2014-02-17 22:47:00,
2014-02-17 23:52:00,45.9,45.3,29.96,SSW,202,5.0,8.0,98,0.00,,,0.00,meteohub,2014-02-17 22:52:00,